Time,TemperatureF,DewpointF,PressureIn,WindDirection,WindDirectionDegrees,WindSpeedMPH,WindSpeedGustMPH,Humidity,HourlyPrecipIn,Conditions,Clouds,dailyrainin,SoftwareType,DateUTC
2013-04-01 00:03:00,56.0,53.4,29.62,South,178,13.8,13.8,91,0.00,CLR,,0.00,WeatherDisplay:10.37,2013-03-31 22:03:00,
2013-04-01 00:08:00,56.0,53.4,29.62,South,178,10.4,10.4,91,0.00,CLR,,0.00,WeatherDisplay:10.37,2013-03-31 22:08:00,
2013-04-01 00:13:00,56.0,53.7,29.62,South,190,10.4,10.4,92,0.00,CLR,,0.00,WeatherDisplay:10.37,2013-03-31 22:13:00,
2013-04-01 00:18:00,56.0,53.7,29.62,South,181,10.4,10.4,92,0.00,CLR,,0.00,WeatherDisplay:10.37,2013-03-31 22:18:00,
2013-04-01 00:23:00,56.0,53.7,29.62,South,187,11.5,11.5,92,0.00,CLR,,0.00,WeatherDisplay:10.37,2013-03-31 22:23:00,
2013-04-01 00:29:00,56.1,53.8,29.62,SSW,210,8.1,8.1,92,0.00,CLR,,0.00,WeatherDisplay:10.37,2013-03-31 22:29:00,
2013-04-01 00:34:00,56.1,53.8,29.62,South,187,6.9,6.9,92,0.00,CLR,,0.00,WeatherDisplay:10.37,2013-03-31 22:34:00,
2013-04-01 00:39:00,56.1,53.8,29.61,South,185,9.2,9.2,92,0.00,CLR,,0.00,WeatherDisplay:10.37,2013-03-31 22:39:00,
2013-04-01 00:44:00,56.1,54.1,29.61,South,182,9.2,9.2,93,0.00,CLR,,0.00,WeatherDisplay:10.37,2013-03-31 22:44:00,
2013-04-01 00:49:00,56.1,54.1,29.61,SSE,167,10.4,10.4,93,0.00,CLR,,0.00,WeatherDisplay:10.37,2013-03-31 22:49:00,
2013-04-01 00:54:00,56.0,54.0,29.61,South,191,12.7,12.7,93,0.00,CLR,,0.00,WeatherDisplay:10.37,2013-03-31 22:54:00,
2013-04-01 00:59:00,56.0,54.0,29.60,SSW,197,11.5,11.5,93,0.00,CLR,,0.00,WeatherDisplay:10.37,2013-03-31 22:59:00,
2013-04-01 01:04:00,55.9,53.9,29.60,SSW,199,11.5,11.5,93,0.00,CLR,,0.00,WeatherDisplay:10.37,2013-03-31 23:04:00,
2013-04-01 01:09:00,55.9,53.9,29.60,SSW,202,10.4,10.4,93,0.00,CLR,,0.00,WeatherDisplay:10.37,2013-03-31 23:09:00,
2013-04-01 01:14:00,55.8,53.8,29.60,SSW,194,12.7,12.7,93,0.00,CLR,,0.00,WeatherDisplay:10.37,2013-03-31 23:14:00,
2013-04-01 01:19:00,55.7,53.7,29.60,SW,217,9.2,9.2,93,0.00,CLR,,0.00,WeatherDisplay:10.37,2013-03-31 23:19:00,
2013-04-01 01:24:00,55.6,53.6,29.59,SW,218,11.5,11.5,93,0.00,CLR,,0.00,WeatherDisplay:10.37,2013-03-31 23:24:00,
2013-04-01 01:29:00,55.5,53.5,29.59,SW,234,11.5,11.5,93,0.00,CLR,,0.00,WeatherDisplay:10.37,2013-03-31 23:29:00,
2013-04-01 01:34:00,55.4,53.4,29.59,SW,236,11.5,11.5,93,0.00,CLR,,0.00,WeatherDisplay:10.37,2013-03-31 23:34:00,
2013-04-01 01:39:00,55.4,53.4,29.59,SW,233,12.7,12.7,93,0.00,CLR,,0.00,WeatherDisplay:10.37,2013-03-31 23:39:00,
2013-04-01 01:44:00,55.3,53.3,29.59,SSW,208,12.7,12.7,93,0.00,CLR,,0.00,WeatherDisplay:10.37,2013-03-31 23:44:00,
2013-04-01 01:49:00,55.3,53.3,29.58,SW,228,10.4,10.4,93,0.00,CLR,,0.00,WeatherDisplay:10.37,2013-03-31 23:49:00,
2013-04-01 01:54:00,55.3,53.3,29.58,SSW,204,11.5,11.5,93,0.00,CLR,,0.00,WeatherDisplay:10.37,2013-03-31 23:54:00,
2013-04-01 01:59:00,55.2,53.2,29.58,SSW,195,12.7,12.7,93,0.00,CLR,,0.00,WeatherDisplay:10.37,2013-03-31 23:59:00,
2013-04-01 02:04:00,55.2,53.2,29.58,SW,235,11.5,11.5,93,0.00,CLR,,0.00,WeatherDisplay:10.37,2013-04-01 00:04:00,
2013-04-01 02:09:00,55.3,53.3,29.58,SW,226,11.5,11.5,93,0.00,CLR,,0.00,WeatherDisplay:10.37,2013-04-01 00:09:00,
2013-04-01 02:14:00,55.3,53.0,29.58,SW,219,12.7,12.7,92,0.00,CLR,,0.00,WeatherDisplay:10.37,2013-04-01 00:14:00,
2013-04-01 02:19:00,55.3,53.0,29.57,SW,218,16.1,16.1,92,0.00,CLR,,0.00,WeatherDisplay:10.37,2013-04-01 00:19:00,
2013-04-01 02:24:00,55.3,53.0,29.57,SW,232,13.0,13.1,92,0.00,CLR,,0.00,WeatherDisplay:10.37,2013-04-01 00:24:00,
2013-04-01 02:29:00,55.3,52.7,29.57,SW,219,17.3,17.3,91,0.00,CLR,,0.00,WeatherDisplay:10.37,2013-04-01 00:29:00,
2013-04-01 02:34:00,55.2,52.6,29.56,WSW,241,12.7,12.7,91,0.00,CLR,,0.00,WeatherDisplay:10.37,2013-04-01 00:34:00,
2013-04-01 02:39:00,55.2,52.6,29.56,SW,236,12.7,12.7,91,0.00,CLR,,0.00,WeatherDisplay:10.37,2013-04-01 00:39:00,
2013-04-01 02:44:00,55.2,52.6,29.56,SW,225,12.7,12.7,91,0.00,CLR,,0.00,WeatherDisplay:10.37,2013-04-01 00:44:00,
2013-04-01 02:49:00,55.2,52.9,29.56,WSW,248,12.7,12.7,92,0.00,CLR,,0.00,WeatherDisplay:10.37,2013-04-01 00:49:00,
2013-04-01 02:54:00,55.1,52.8,29.56,SSW,211,13.8,13.8,92,0.00,CLR,,0.00,WeatherDisplay:10.37,2013-04-01 00:54:00,
2013-04-01 02:59:00,55.1,52.8,29.56,SSW,209,12.7,12.7,92,0.00,CLR,,0.00,WeatherDisplay:10.37,2013-04-01 00:59:00,
2013-04-01 03:04:00,55.1,52.8,29.55,SW,214,15.0,15.0,92,0.00,CLR,,0.00,WeatherDisplay:10.37,2013-04-01 01:04:00,
2013-04-01 03:09:00,55.1,52.8,29.55,SW,220,13.8,13.8,92,0.00,CLR,,0.00,WeatherDisplay:10.37,2013-04-01 01:09:00,
2013-04-01 03:14:00,55.1,52.8,29.55,SW,215,11.5,11.5,92,0.00,CLR,,0.00,WeatherDisplay:10.37,2013-04-01 01:14:00,
2013-04-01 03:19:00,55.1,52.8,29.54,SSW,212,11.5,11.5,92,0.00,CLR,,0.00,WeatherDisplay:10.37,2013-04-01 01:19:00,
2013-04-01 03:24:00,55.1,52.8,29.55,SSW,207,12.7,12.7,92,0.00,CLR,,0.00,WeatherDisplay:10.37,2013-04-01 01:24:00,
2013-04-01 03:29:00,55.1,52.8,29.54,SW,222,11.5,11.5,92,0.00,CLR,,0.00,WeatherDisplay:10.37,2013-04-01 01:29:00,
2013-04-01 03:34:00,55.1,52.8,29.54,SSW,207,8.1,8.1,92,0.00,CLR,,0.00,WeatherDisplay:10.37,2013-04-01 01:34:00,
2013-04-01 03:39:00,55.1,53.1,29.54,SSW,210,10.4,10.4,93,0.00,CLR,,0.00,WeatherDisplay:10.37,2013-04-01 01:39:00,
2013-04-01 03:44:00,55.1,53.1,29.54,SW,220,11.5,11.5,93,0.00,CLR,,0.00,WeatherDisplay:10.37,2013-04-01 01:44:00,
2013-04-01 03:49:00,55.2,53.2,29.53,SW,226,12.7,12.7,93,0.00,CLR,,0.00,WeatherDisplay:10.37,2013-04-01 01:49:00,
2013-04-01 03:54:00,55.3,53.3,29.53,WSW,238,11.5,11.5,93,0.00,CLR,,0.00,WeatherDisplay:10.37,2013-04-01 01:54:00,
2013-04-01 03:59:00,55.3,53.3,29.53,SW,224,10.4,10.4,93,0.00,CLR,,0.00,WeatherDisplay:10.37,2013-04-01 01:59:00,
2013-04-01 04:04:00,55.3,53.3,29.53,SW,236,11.5,11.5,93,0.00,CLR,,0.00,WeatherDisplay:10.37,2013-04-01 02:04:00,
2013-04-01 04:09:00,55.4,53.4,29.53,WSW,246,11.5,11.5,93,0.00,CLR,,0.00,WeatherDisplay:10.37,2013-04-01 02:09:00,
2013-04-01 04:14:00,55.4,53.4,29.52,SW,231,11.5,11.5,93,0.00,CLR,,0.00,WeatherDisplay:10.37,2013-04-01 02:14:00,
2013-04-01 04:19:00,55.4,53.4,29.52,SW,231,11.0,11.0,93,0.00,CLR,,0.00,WeatherDisplay:10.37,2013-04-01 02:19:00,
2013-04-01 04:24:00,55.4,53.4,29.52,SW,236,11.5,11.5,93,0.00,CLR,,0.00,WeatherDisplay:10.37,2013-04-01 02:24:00,
2013-04-01 04:29:00,55.4,53.7,29.51,SW,226,9.2,9.2,94,0.00,CLR,,0.00,WeatherDisplay:10.37,2013-04-01 02:29:00,
2013-04-01 04:34:00,55.4,53.7,29.51,SSW,210,6.9,6.9,94,0.00,CLR,,0.00,WeatherDisplay:10.37,2013-04-01 02:34:00,
2013-04-01 04:39:00,55.4,53.7,29.51,SW,224,9.2,9.2,94,0.00,CLR,,0.00,WeatherDisplay:10.37,2013-04-01 02:39:00,
2013-04-01 04:44:00,55.4,53.7,29.51,SSW,207,11.5,11.5,94,0.00,CLR,,0.00,WeatherDisplay:10.37,2013-04-01 02:44:00,
2013-04-01 04:49:00,55.4,53.7,29.51,SW,229,11.0,11.0,94,0.00,CLR,,0.00,WeatherDisplay:10.37,2013-04-01 02:49:00,
2013-04-01 04:54:00,55.4,53.7,29.50,SSW,208,13.8,13.8,94,0.00,CLR,,0.00,WeatherDisplay:10.37,2013-04-01 02:54:00,
2013-04-01 04:59:00,55.3,53.6,29.50,SW,224,12.7,12.7,94,0.01,RA,,0.01,WeatherDisplay:10.37,2013-04-01 02:59:00,
2013-04-01 05:04:00,55.4,53.7,29.49,SW,226,13.8,13.8,94,0.01,RA,,0.01,WeatherDisplay:10.37,2013-04-01 03:04:00,
2013-04-01 05:09:00,55.3,53.6,29.49,SW,217,17.3,17.3,94,0.01,,,0.01,WeatherDisplay:10.37,2013-04-01 03:09:00,
2013-04-01 05:14:00,55.4,53.7,29.49,SW,227,17.0,17.0,94,0.01,CLR,,0.01,WeatherDisplay:10.37,2013-04-01 03:14:00,
2013-04-01 05:19:00,55.5,53.8,29.49,SW,228,16.1,16.1,94,0.01,CLR,,0.01,WeatherDisplay:10.37,2013-04-01 03:19:00,
2013-04-01 05:24:00,55.5,53.8,29.49,SW,235,19.6,19.6,94,0.01,CLR,,0.01,WeatherDisplay:10.37,2013-04-01 03:24:00,
2013-04-01 05:29:00,55.5,54.1,29.49,SW,217,16.1,16.1,95,0.02,RA,,0.02,WeatherDisplay:10.37,2013-04-01 03:29:00,
2013-04-01 05:34:00,55.5,54.1,29.49,WSW,241,13.8,13.8,95,0.02,RA,,0.02,WeatherDisplay:10.37,2013-04-01 03:34:00,
2013-04-01 05:39:00,55.6,54.2,29.49,SSW,203,19.6,19.6,95,0.02,CLR,,0.02,WeatherDisplay:10.37,2013-04-01 03:39:00,
2013-04-01 05:44:00,55.7,54.3,29.49,SW,216,18.4,18.4,95,0.02,CLR,,0.02,WeatherDisplay:10.37,2013-04-01 03:44:00,
2013-04-01 05:49:00,55.7,54.3,29.49,South,181,21.9,21.9,95,0.02,RA,,0.02,WeatherDisplay:10.37,2013-04-01 03:49:00,
2013-04-01 05:54:00,55.7,54.3,29.48,SW,216,19.6,19.6,95,0.02,RA,,0.02,WeatherDisplay:10.37,2013-04-01 03:54:00,
2013-04-01 05:59:00,55.7,54.3,29.48,SW,231,21.9,21.9,95,0.02,,,0.02,WeatherDisplay:10.37,2013-04-01 03:59:00,
2013-04-01 06:00:00,55.7,54.3,29.48,SW,226,21.9,21.9,95,0.02,,,0.02,WeatherDisplay:10.37,2013-04-01 04:00:00,
2013-04-01 06:05:00,55.7,54.3,29.48,SSW,201,15.0,15.0,95,0.02,CLR,,0.02,WeatherDisplay:10.37,2013-04-01 04:05:00,
2013-04-01 06:10:00,55.6,54.2,29.48,SW,230,15.0,15.0,95,0.02,CLR,,0.02,WeatherDisplay:10.37,2013-04-01 04:10:00,
2013-04-01 06:12:00,55.6,54.2,29.48,SW,224,12.7,12.7,95,0.02,CLR,,0.02,WeatherDisplay:10.37,2013-04-01 04:12:00,
2013-04-01 06:17:00,55.6,54.2,29.47,South,179,18.4,18.4,95,0.02,CLR,,0.02,WeatherDisplay:10.37,2013-04-01 04:17:00,
2013-04-01 06:22:00,55.7,54.3,29.47,South,190,16.1,16.1,95,0.02,CLR,,0.02,WeatherDisplay:10.37,2013-04-01 04:22:00,
2013-04-01 06:27:00,55.9,54.5,29.47,SSE,157,15.0,15.0,95,0.01,CLR,,0.02,WeatherDisplay:10.37,2013-04-01 04:27:00,
2013-04-01 06:32:00,56.0,54.6,29.47,SSW,208,11.5,11.5,95,0.01,CLR,,0.02,WeatherDisplay:10.37,2013-04-01 04:32:00,
2013-04-01 06:37:00,56.1,54.7,29.46,South,189,12.7,12.7,95,0.01,CLR,,0.02,WeatherDisplay:10.37,2013-04-01 04:37:00,
2013-04-01 06:42:00,56.2,54.8,29.46,SSW,204,12.7,12.7,95,0.01,CLR,,0.02,WeatherDisplay:10.37,2013-04-01 04:42:00,
2013-04-01 06:47:00,56.3,54.9,29.45,SSW,205,13.8,13.8,95,0.01,CLR,,0.02,WeatherDisplay:10.37,2013-04-01 04:47:00,
2013-04-01 06:52:00,56.4,55.0,29.45,SSE,164,13.8,13.8,95,0.00,CLR,,0.02,WeatherDisplay:10.37,2013-04-01 04:52:00,
2013-04-01 06:57:00,56.5,55.1,29.45,South,186,15.0,15.0,95,0.00,CLR,,0.02,WeatherDisplay:10.37,2013-04-01 04:57:00,
2013-04-01 07:02:00,56.6,55.2,29.45,SSW,193,17.3,17.3,95,0.01,RA,,0.03,WeatherDisplay:10.37,2013-04-01 05:02:00,
2013-04-01 07:08:00,56.7,55.3,29.45,South,181,16.0,16.0,95,0.01,RA,,0.03,WeatherDisplay:10.37,2013-04-01 05:08:00,
2013-04-01 07:13:00,56.7,55.3,29.44,SSW,211,18.4,18.4,95,0.01,,,0.03,WeatherDisplay:10.37,2013-04-01 05:13:00,
2013-04-01 07:18:00,56.8,55.4,29.44,SW,224,18.4,18.4,95,0.01,CLR,,0.03,WeatherDisplay:10.37,2013-04-01 05:18:00,
2013-04-01 07:23:00,56.9,55.5,29.44,SW,218,17.3,17.3,95,0.01,CLR,,0.03,WeatherDisplay:10.37,2013-04-01 05:23:00,
2013-04-01 07:28:00,56.9,55.5,29.44,SW,228,16.1,16.1,95,0.02,RA,,0.04,WeatherDisplay:10.37,2013-04-01 05:28:00,
2013-04-01 07:33:00,56.9,55.5,29.43,SSW,204,19.0,19.0,95,0.02,RA,,0.04,WeatherDisplay:10.37,2013-04-01 05:33:00,
2013-04-01 07:38:00,56.8,55.4,29.43,South,190,20.0,20.0,95,0.02,CLR,,0.04,WeatherDisplay:10.37,2013-04-01 05:38:00,
2013-04-01 07:43:00,56.8,55.4,29.43,South,190,19.6,19.6,95,0.02,CLR,,0.04,WeatherDisplay:10.37,2013-04-01 05:43:00,
2013-04-01 07:48:00,56.7,55.3,29.43,South,178,18.4,18.4,95,0.02,CLR,,0.04,WeatherDisplay:10.37,2013-04-01 05:48:00,
2013-04-01 07:53:00,56.7,55.3,29.43,SW,234,20.7,20.7,95,0.02,CLR,,0.04,WeatherDisplay:10.37,2013-04-01 05:53:00,
2013-04-01 07:58:00,56.7,55.3,29.43,South,191,22.0,22.0,95,0.02,RA,,0.05,WeatherDisplay:10.37,2013-04-01 05:58:00,
2013-04-01 08:03:00,56.7,55.3,29.43,SW,220,26.5,26.5,95,0.02,RA,,0.05,WeatherDisplay:10.37,2013-04-01 06:03:00,
2013-04-01 08:08:00,56.7,55.3,29.42,SW,221,24.2,24.2,95,0.02,CLR,,0.05,WeatherDisplay:10.37,2013-04-01 06:08:00,
2013-04-01 08:13:00,56.6,55.2,29.42,SW,223,32.2,32.2,95,0.02,CLR,,0.05,WeatherDisplay:10.37,2013-04-01 06:13:00,
2013-04-01 08:18:00,56.6,55.2,29.42,SW,231,23.0,23.0,95,0.02,CLR,,0.05,WeatherDisplay:10.37,2013-04-01 06:18:00,
2013-04-01 08:23:00,56.6,55.2,29.42,SW,226,34.5,34.5,95,0.02,CLR,,0.05,WeatherDisplay:10.37,2013-04-01 06:23:00,
2013-04-01 08:28:00,56.6,55.5,29.42,WSW,245,31.1,31.1,96,0.01,CLR,,0.05,WeatherDisplay:10.37,2013-04-01 06:28:00,
2013-04-01 08:33:00,56.6,55.5,29.42,West,269,24.2,24.2,96,0.01,CLR,,0.05,WeatherDisplay:10.37,2013-04-01 06:33:00,
2013-04-01 08:38:00,56.5,55.1,29.42,SW,226,31.1,31.1,95,0.01,CLR,,0.05,WeatherDisplay:10.37,2013-04-01 06:38:00,
2013-04-01 08:43:00,56.4,55.0,29.42,SW,232,27.0,27.0,95,0.01,CLR,,0.05,WeatherDisplay:10.37,2013-04-01 06:43:00,
2013-04-01 08:48:00,56.2,54.8,29.42,WSW,246,33.4,33.4,95,0.01,CLR,,0.05,WeatherDisplay:10.37,2013-04-01 06:48:00,
2013-04-01 08:53:00,56.0,54.6,29.42,West,261,28.8,28.8,95,0.01,CLR,,0.05,WeatherDisplay:10.37,2013-04-01 06:53:00,
2013-04-01 08:58:00,55.8,54.4,29.42,SW,236,29.9,29.9,95,0.00,CLR,,0.05,WeatherDisplay:10.37,2013-04-01 06:58:00,
2013-04-01 09:03:00,55.7,54.3,29.42,WSW,257,21.9,21.9,95,0.00,CLR,,0.05,WeatherDisplay:10.37,2013-04-01 07:03:00,
2013-04-01 09:08:00,55.6,54.2,29.42,WSW,257,26.5,26.5,95,0.00,CLR,,0.05,WeatherDisplay:10.37,2013-04-01 07:08:00,
2013-04-01 09:13:00,55.7,54.3,29.42,WSW,245,15.0,15.0,95,0.00,CLR,,0.05,WeatherDisplay:10.37,2013-04-01 07:13:00,
2013-04-01 09:18:00,55.7,54.3,29.42,WSW,248,17.3,17.3,95,0.00,CLR,,0.05,WeatherDisplay:10.37,2013-04-01 07:18:00,
2013-04-01 09:23:00,55.8,54.4,29.42,WSW,241,17.3,17.3,95,0.00,CLR,,0.05,WeatherDisplay:10.37,2013-04-01 07:23:00,
2013-04-01 09:28:00,55.9,54.5,29.42,West,281,15.0,15.0,95,0.00,CLR,,0.05,WeatherDisplay:10.37,2013-04-01 07:28:00,
2013-04-01 09:33:00,56.0,54.6,29.42,West,279,16.1,16.1,95,0.00,CLR,,0.05,WeatherDisplay:10.37,2013-04-01 07:33:00,
2013-04-01 09:38:00,56.0,54.6,29.42,WSW,247,16.1,16.1,95,0.00,CLR,,0.05,WeatherDisplay:10.37,2013-04-01 07:38:00,
2013-04-01 09:43:00,56.0,54.6,29.42,SSW,210,16.1,16.1,95,0.00,CLR,,0.05,WeatherDisplay:10.37,2013-04-01 07:43:00,
2013-04-01 09:48:00,56.1,54.7,29.41,SW,231,11.5,11.5,95,0.00,CLR,,0.05,WeatherDisplay:10.37,2013-04-01 07:48:00,
2013-04-01 09:53:00,55.9,54.5,29.42,SW,227,18.4,18.4,95,0.00,CLR,,0.05,WeatherDisplay:10.37,2013-04-01 07:53:00,
2013-04-01 09:58:00,56.1,54.7,29.42,WSW,249,18.4,18.4,95,0.00,CLR,,0.05,WeatherDisplay:10.37,2013-04-01 07:58:00,
2013-04-01 10:03:00,56.2,54.5,29.43,SW,224,19.6,19.6,94,0.00,CLR,,0.05,WeatherDisplay:10.37,2013-04-01 08:03:00,
2013-04-01 10:08:00,56.3,54.6,29.43,WSW,241,20.0,20.0,94,0.00,CLR,,0.05,WeatherDisplay:10.37,2013-04-01 08:08:00,
2013-04-01 10:13:00,56.3,54.6,29.43,WNW,290,20.7,20.7,94,0.00,CLR,,0.05,WeatherDisplay:10.37,2013-04-01 08:13:00,
2013-04-01 10:18:00,56.3,54.6,29.43,SW,231,26.5,26.5,94,0.00,CLR,,0.05,WeatherDisplay:10.37,2013-04-01 08:18:00,
2013-04-01 10:23:00,56.5,54.5,29.43,WSW,238,21.9,21.9,93,0.00,CLR,,0.05,WeatherDisplay:10.37,2013-04-01 08:23:00,
2013-04-01 10:28:00,57.0,55.0,29.43,SW,227,18.4,18.4,93,0.00,CLR,,0.05,WeatherDisplay:10.37,2013-04-01 08:28:00,
2013-04-01 10:33:00,57.2,55.2,29.43,WSW,239,16.0,16.0,93,0.00,CLR,,0.05,WeatherDisplay:10.37,2013-04-01 08:33:00,
2013-04-01 10:38:00,57.4,55.1,29.43,West,280,26.5,26.5,92,0.00,CLR,,0.05,WeatherDisplay:10.37,2013-04-01 08:38:00,
2013-04-01 10:43:00,57.9,54.7,29.43,WSW,246,24.0,24.0,89,0.00,CLR,,0.05,WeatherDisplay:10.37,2013-04-01 08:43:00,
2013-04-01 10:48:00,58.2,54.0,29.43,SW,236,34.5,34.5,86,0.01,RA,,0.06,WeatherDisplay:10.37,2013-04-01 08:48:00,
2013-04-01 10:53:00,58.5,54.3,29.44,WSW,251,24.2,24.2,86,0.01,RA,,0.06,WeatherDisplay:10.37,2013-04-01 08:53:00,
2013-04-01 10:58:00,58.2,53.4,29.44,SW,235,33.4,33.4,84,0.01,,,0.06,WeatherDisplay:10.37,2013-04-01 08:58:00,
2013-04-01 11:03:00,58.1,53.9,29.44,SSW,193,25.3,25.3,86,0.01,CLR,,0.06,WeatherDisplay:10.37,2013-04-01 09:03:00,
2013-04-01 11:08:00,58.0,53.8,29.44,WSW,241,27.6,27.6,86,0.01,CLR,,0.06,WeatherDisplay:10.37,2013-04-01 09:08:00,
2013-04-01 11:13:00,58.2,54.3,29.44,SW,223,21.9,21.9,87,0.01,CLR,,0.06,WeatherDisplay:10.37,2013-04-01 09:13:00,
2013-04-01 11:18:00,58.4,54.2,29.44,WSW,240,26.5,26.5,86,0.01,CLR,,0.06,WeatherDisplay:10.37,2013-04-01 09:18:00,
2013-04-01 11:23:00,59.4,55.2,29.44,WSW,246,18.4,18.4,86,0.01,CLR,,0.06,WeatherDisplay:10.37,2013-04-01 09:23:00,
2013-04-01 11:28:00,59.0,54.2,29.44,SW,223,34.5,34.5,84,0.01,CLR,,0.06,WeatherDisplay:10.37,2013-04-01 09:28:00,
2013-04-01 11:33:00,58.6,54.4,29.43,SW,220,29.9,29.9,86,0.01,CLR,,0.06,WeatherDisplay:10.37,2013-04-01 09:33:00,
2013-04-01 11:39:00,58.7,54.8,29.44,West,263,33.4,33.4,87,0.01,CLR,,0.06,WeatherDisplay:10.37,2013-04-01 09:39:00,
2013-04-01 11:44:00,58.8,54.6,29.44,SW,236,33.4,33.4,86,0.01,CLR,,0.06,WeatherDisplay:10.37,2013-04-01 09:44:00,
2013-04-01 11:49:00,58.7,55.2,29.44,West,263,33.4,33.4,88,0.00,CLR,,0.06,WeatherDisplay:10.37,2013-04-01 09:49:00,
2013-04-01 11:54:00,58.9,55.0,29.44,WSW,245,34.5,34.5,87,0.00,,,0.06,WeatherDisplay:10.37,2013-04-01 09:54:00,
2013-04-01 11:59:00,59.4,55.2,29.44,WSW,249,34.5,34.5,86,0.00,CLR,,0.06,WeatherDisplay:10.37,2013-04-01 09:59:00,
2013-04-01 12:04:00,59.0,54.8,29.44,WSW,242,34.5,34.5,86,0.00,CLR,,0.06,WeatherDisplay:10.37,2013-04-01 10:04:00,
2013-04-01 12:09:00,59.5,54.7,29.44,WSW,239,32.2,32.2,84,0.00,CLR,,0.06,WeatherDisplay:10.37,2013-04-01 10:09:00,
2013-04-01 12:14:00,60.3,55.1,29.44,West,268,25.3,25.3,83,0.00,CLR,,0.06,WeatherDisplay:10.37,2013-04-01 10:14:00,
2013-04-01 12:19:00,60.1,54.2,29.44,ENE,60,34.5,34.5,81,0.00,CLR,,0.06,WeatherDisplay:10.37,2013-04-01 10:19:00,
2013-04-01 12:24:00,60.1,53.9,29.44,SW,235,36.8,36.8,80,0.00,CLR,,0.06,WeatherDisplay:10.37,2013-04-01 10:24:00,
2013-04-01 12:29:00,60.0,53.5,29.44,West,272,38.0,38.0,79,0.00,CLR,,0.06,WeatherDisplay:10.37,2013-04-01 10:29:00,
2013-04-01 12:34:00,60.2,54.0,29.44,WSW,245,35.0,35.0,80,0.00,CLR,,0.06,WeatherDisplay:10.37,2013-04-01 10:34:00,
2013-04-01 12:39:00,59.8,52.6,29.44,WSW,252,35.7,35.7,77,0.00,,,0.06,WeatherDisplay:10.37,2013-04-01 10:39:00,
2013-04-01 12:44:00,59.8,53.3,29.44,WSW,245,36.8,36.8,79,0.00,CLR,,0.06,WeatherDisplay:10.37,2013-04-01 10:44:00,
2013-04-01 12:49:00,60.1,52.1,29.44,WSW,254,41.4,41.4,75,0.00,,,0.06,WeatherDisplay:10.37,2013-04-01 10:49:00,
2013-04-01 12:54:00,60.5,51.8,29.44,WNW,284,34.5,34.5,73,0.00,CLR,,0.06,WeatherDisplay:10.37,2013-04-01 10:54:00,
2013-04-01 12:59:00,60.2,50.8,29.43,West,274,38.0,38.0,71,0.00,,,0.06,WeatherDisplay:10.37,2013-04-01 10:59:00,
2013-04-01 13:04:00,60.3,50.5,29.44,West,281,34.5,34.5,70,0.00,,,0.06,WeatherDisplay:10.37,2013-04-01 11:04:00,
2013-04-01 13:09:00,60.0,50.6,29.43,WSW,251,38.0,38.0,71,0.00,,,0.06,WeatherDisplay:10.37,2013-04-01 11:09:00,
2013-04-01 13:14:00,60.3,50.1,29.43,SW,231,34.5,34.5,69,0.00,,,0.06,WeatherDisplay:10.37,2013-04-01 11:14:00,
2013-04-01 13:19:00,60.5,50.7,29.43,WSW,237,28.0,28.0,70,0.00,CLR,,0.06,WeatherDisplay:10.37,2013-04-01 11:19:00,
2013-04-01 13:24:00,60.5,50.7,29.43,WSW,245,33.4,33.4,70,0.00,CLR,,0.06,WeatherDisplay:10.37,2013-04-01 11:24:00,
2013-04-01 13:29:00,60.3,50.5,29.43,West,264,34.5,34.5,70,0.00,CLR,,0.06,WeatherDisplay:10.37,2013-04-01 11:29:00,
2013-04-01 13:34:00,60.6,50.8,29.43,WSW,247,33.4,33.4,70,0.00,CLR,,0.06,WeatherDisplay:10.37,2013-04-01 11:34:00,
2013-04-01 13:39:00,60.8,50.2,29.43,West,269,29.9,29.9,68,0.00,,,0.06,WeatherDisplay:10.37,2013-04-01 11:39:00,
2013-04-01 13:44:00,61.3,50.6,29.43,WNW,285,34.5,34.5,68,0.00,CLR,,0.06,WeatherDisplay:10.37,2013-04-01 11:44:00,
2013-04-01 13:49:00,61.5,50.4,29.42,WSW,249,40.3,40.3,67,0.00,CLR,,0.06,WeatherDisplay:10.37,2013-04-01 11:49:00,
2013-04-01 13:54:00,61.7,51.4,29.43,WSW,239,30.0,30.0,69,0.00,CLR,,0.06,WeatherDisplay:10.37,2013-04-01 11:54:00,
2013-04-01 13:59:00,61.3,51.0,29.43,WSW,256,37.0,37.0,69,0.00,CLR,,0.06,WeatherDisplay:10.37,2013-04-01 11:59:00,
2013-04-01 14:04:00,62.0,51.7,29.43,WNW,293,34.5,34.5,69,0.00,CLR,,0.06,WeatherDisplay:10.37,2013-04-01 12:04:00,
2013-04-01 14:09:00,61.0,50.4,29.44,West,271,34.5,34.5,68,0.00,CLR,,0.06,WeatherDisplay:10.37,2013-04-01 12:09:00,
2013-04-01 14:14:00,61.2,50.2,29.44,East,100,38.0,38.0,67,0.00,CLR,,0.06,WeatherDisplay:10.37,2013-04-01 12:14:00,
2013-04-01 14:19:00,61.5,50.4,29.44,West,268,33.4,33.4,67,0.00,CLR,,0.06,WeatherDisplay:10.37,2013-04-01 12:19:00,
2013-04-01 14:24:00,61.7,50.2,29.44,WNW,302,36.8,36.8,66,0.00,CLR,,0.06,WeatherDisplay:10.37,2013-04-01 12:24:00,
2013-04-01 14:29:00,61.1,50.1,29.44,West,272,37.0,37.0,67,0.00,CLR,,0.06,WeatherDisplay:10.37,2013-04-01 12:29:00,
2013-04-01 14:34:00,61.7,50.2,29.43,NW,313,26.5,26.5,66,0.00,CLR,,0.06,WeatherDisplay:10.37,2013-04-01 12:34:00,
2013-04-01 14:39:00,61.8,49.9,29.43,WNW,300,32.2,32.2,65,0.00,CLR,,0.06,WeatherDisplay:10.37,2013-04-01 12:39:00,
2013-04-01 14:44:00,61.7,50.2,29.44,West,272,32.2,32.2,66,0.00,CLR,,0.06,WeatherDisplay:10.37,2013-04-01 12:44:00,
2013-04-01 14:49:00,61.4,49.9,29.44,West,260,39.1,39.1,66,0.00,,,0.06,WeatherDisplay:10.37,2013-04-01 12:49:00,
2013-04-01 14:54:00,61.9,50.8,29.44,SW,233,28.8,28.8,67,0.00,CLR,,0.06,WeatherDisplay:10.37,2013-04-01 12:54:00,
2013-04-01 14:59:00,61.8,49.9,29.44,NW,320,42.6,42.6,65,0.00,CLR,,0.06,WeatherDisplay:10.37,2013-04-01 12:59:00,
2013-04-01 15:04:00,61.9,49.6,29.44,West,267,36.8,36.8,64,0.00,CLR,,0.06,WeatherDisplay:10.37,2013-04-01 13:04:00,
2013-04-01 15:09:00,61.8,49.5,29.45,NW,312,38.0,38.0,64,0.00,CLR,,0.06,WeatherDisplay:10.37,2013-04-01 13:09:00,
2013-04-01 15:14:00,62.1,49.4,29.44,West,277,36.8,36.8,63,0.00,CLR,,0.06,WeatherDisplay:10.37,2013-04-01 13:14:00,
2013-04-01 15:19:00,62.6,49.4,29.45,West,266,33.4,33.4,62,0.00,CLR,,0.06,WeatherDisplay:10.37,2013-04-01 13:19:00,
2013-04-01 15:24:00,62.5,48.9,29.45,West,272,34.5,34.5,61,0.00,CLR,,0.06,WeatherDisplay:10.37,2013-04-01 13:24:00,
2013-04-01 15:29:00,62.6,49.0,29.45,SW,216,33.4,33.4,61,0.00,CLR,,0.06,WeatherDisplay:10.37,2013-04-01 13:29:00,
2013-04-01 15:34:00,62.3,48.7,29.45,WNW,285,34.5,34.5,61,0.00,CLR,,0.06,WeatherDisplay:10.37,2013-04-01 13:34:00,
2013-04-01 15:39:00,62.5,48.9,29.44,WSW,247,36.8,36.8,61,0.00,,,0.06,WeatherDisplay:10.37,2013-04-01 13:39:00,
2013-04-01 15:44:00,62.1,48.5,29.45,West,264,33.4,33.4,61,0.00,CLR,,0.06,WeatherDisplay:10.37,2013-04-01 13:44:00,
2013-04-01 15:49:00,62.3,48.7,29.45,WSW,253,34.5,34.5,61,0.00,CLR,,0.06,WeatherDisplay:10.37,2013-04-01 13:49:00,
2013-04-01 15:54:00,62.1,48.0,29.45,West,274,34.5,34.5,60,0.00,CLR,,0.06,WeatherDisplay:10.37,2013-04-01 13:54:00,
2013-04-01 15:59:00,62.1,47.6,29.45,WNW,294,34.5,34.5,59,0.00,,,0.06,WeatherDisplay:10.37,2013-04-01 13:59:00,
2013-04-01 16:04:00,62.4,47.9,29.46,WSW,252,33.0,33.0,59,0.00,CLR,,0.06,WeatherDisplay:10.37,2013-04-01 14:04:00,
2013-04-01 16:09:00,62.6,48.5,29.45,West,277,31.1,31.1,60,0.00,CLR,,0.06,WeatherDisplay:10.37,2013-04-01 14:09:00,
2013-04-01 16:14:00,62.8,49.1,29.46,WNW,290,24.2,24.2,61,0.00,CLR,,0.06,WeatherDisplay:10.37,2013-04-01 14:14:00,
2013-04-01 16:19:00,63.1,49.0,29.46,SW,228,31.1,31.1,60,0.00,CLR,,0.06,WeatherDisplay:10.37,2013-04-01 14:19:00,
2013-04-01 16:24:00,63.1,48.1,29.45,SW,217,26.5,26.5,58,0.00,CLR,,0.06,WeatherDisplay:10.37,2013-04-01 14:24:00,
2013-04-01 16:29:00,62.6,46.2,29.45,South,170,32.2,32.2,55,0.00,CLR,,0.06,WeatherDisplay:10.37,2013-04-01 14:29:00,
2013-04-01 16:34:00,63.0,47.1,29.46,West,263,34.5,34.5,56,0.00,CLR,,0.06,WeatherDisplay:10.37,2013-04-01 14:34:00,
2013-04-01 16:39:00,62.6,46.2,29.45,WSW,247,36.8,36.8,55,0.00,CLR,,0.06,WeatherDisplay:10.37,2013-04-01 14:39:00,
2013-04-01 16:44:00,63.0,46.1,29.46,NW,315,33.4,33.4,54,0.00,CLR,,0.06,WeatherDisplay:10.37,2013-04-01 14:44:00,
2013-04-01 16:49:00,63.0,46.1,29.46,WSW,257,40.3,40.3,54,0.00,CLR,,0.06,WeatherDisplay:10.37,2013-04-01 14:49:00,
2013-04-01 16:54:00,63.1,46.7,29.46,SW,235,35.7,35.7,55,0.00,CLR,,0.06,WeatherDisplay:10.37,2013-04-01 14:54:00,
2013-04-01 16:59:00,63.2,47.2,29.47,West,277,28.8,28.8,56,0.00,CLR,,0.06,WeatherDisplay:10.37,2013-04-01 14:59:00,
2013-04-01 17:04:00,63.6,46.6,29.46,West,278,29.9,29.9,54,0.00,CLR,,0.06,WeatherDisplay:10.37,2013-04-01 15:04:00,
2013-04-01 17:09:00,63.0,47.1,29.46,WNW,285,27.6,27.6,56,0.00,CLR,,0.06,WeatherDisplay:10.37,2013-04-01 15:09:00,
2013-04-01 17:14:00,63.1,46.7,29.46,WNW,300,28.8,28.8,55,0.00,CLR,,0.06,WeatherDisplay:10.37,2013-04-01 15:14:00,
2013-04-01 17:19:00,63.1,47.1,29.46,SSE,164,29.9,29.9,56,0.00,CLR,,0.06,WeatherDisplay:10.37,2013-04-01 15:19:00,
2013-04-01 17:24:00,63.2,46.8,29.46,WNW,291,35.7,35.7,55,0.00,CLR,,0.06,WeatherDisplay:10.37,2013-04-01 15:24:00,
2013-04-01 17:29:00,63.0,47.1,29.46,NNW,339,34.5,34.5,56,0.00,CLR,,0.06,WeatherDisplay:10.37,2013-04-01 15:29:00,
2013-04-01 17:34:00,63.0,47.1,29.46,West,270,32.2,32.2,56,0.00,CLR,,0.06,WeatherDisplay:10.37,2013-04-01 15:34:00,
2013-04-01 17:39:00,63.1,47.1,29.46,West,265,28.8,28.8,56,0.00,CLR,,0.06,WeatherDisplay:10.37,2013-04-01 15:39:00,
2013-04-01 17:44:00,63.2,46.8,29.46,WSW,258,33.4,33.4,55,0.00,CLR,,0.06,WeatherDisplay:10.37,2013-04-01 15:44:00,
2013-04-01 17:49:00,63.1,46.7,29.46,West,260,34.5,34.5,55,0.00,CLR,,0.06,WeatherDisplay:10.37,2013-04-01 15:49:00,
2013-04-01 17:54:00,63.3,46.9,29.47,WNW,288,28.0,28.0,55,0.00,CLR,,0.06,WeatherDisplay:10.37,2013-04-01 15:54:00,
2013-04-01 17:59:00,63.2,46.8,29.47,WNW,287,28.8,28.8,55,0.00,CLR,,0.06,WeatherDisplay:10.37,2013-04-01 15:59:00,
2013-04-01 18:04:00,63.3,46.9,29.47,West,262,27.6,27.6,55,0.00,CLR,,0.06,WeatherDisplay:10.37,2013-04-01 16:04:00,
2013-04-01 18:09:00,63.7,47.2,29.47,NW,323,24.0,24.0,55,0.00,CLR,,0.06,WeatherDisplay:10.37,2013-04-01 16:09:00,
2013-04-01 18:14:00,63.6,46.6,29.47,North,359,33.4,33.4,54,0.00,CLR,,0.06,WeatherDisplay:10.37,2013-04-01 16:14:00,
2013-04-01 18:19:00,63.3,46.4,29.47,WNW,283,25.0,25.0,54,0.00,CLR,,0.06,WeatherDisplay:10.37,2013-04-01 16:19:00,
2013-04-01 18:24:00,63.3,46.9,29.48,WNW,303,25.3,25.3,55,0.00,CLR,,0.06,WeatherDisplay:10.37,2013-04-01 16:24:00,
2013-04-01 18:29:00,63.2,46.3,29.47,WNW,285,30.0,30.0,54,0.00,CLR,,0.06,WeatherDisplay:10.37,2013-04-01 16:29:00,
2013-04-01 18:34:00,63.2,46.3,29.48,WSW,245,26.5,26.5,54,0.00,CLR,,0.06,WeatherDisplay:10.37,2013-04-01 16:34:00,
2013-04-01 18:39:00,62.7,46.8,29.47,SSW,212,32.2,32.2,56,0.00,CLR,,0.06,WeatherDisplay:10.37,2013-04-01 16:39:00,
2013-04-01 18:44:00,62.6,47.1,29.48,NW,326,26.5,26.5,57,0.00,CLR,,0.06,WeatherDisplay:10.37,2013-04-01 16:44:00,
2013-04-01 18:49:00,62.3,47.8,29.48,NNW,339,26.5,26.5,59,0.00,CLR,,0.06,WeatherDisplay:10.37,2013-04-01 16:49:00,
2013-04-01 18:54:00,62.0,48.0,29.48,West,260,20.0,20.0,60,0.00,CLR,,0.06,WeatherDisplay:10.37,2013-04-01 16:54:00,
2013-04-01 18:59:00,61.7,48.1,29.48,West,276,24.2,24.2,61,0.00,CLR,,0.06,WeatherDisplay:10.37,2013-04-01 16:59:00,
2013-04-01 19:04:00,61.2,48.5,29.49,West,277,18.4,18.4,63,0.00,CLR,,0.06,WeatherDisplay:10.37,2013-04-01 17:04:00,
2013-04-01 19:09:00,61.0,48.7,29.49,WNW,283,24.2,24.2,64,0.00,CLR,,0.06,WeatherDisplay:10.37,2013-04-01 17:09:00,
2013-04-01 19:15:00,60.7,48.9,29.49,SW,215,23.0,23.0,65,0.00,CLR,,0.06,WeatherDisplay:10.37,2013-04-01 17:15:00,
2013-04-01 19:19:00,60.8,49.0,29.49,West,275,23.0,23.0,65,0.00,CLR,,0.06,WeatherDisplay:10.37,2013-04-01 17:19:00,
2013-04-01 19:24:00,61.0,49.1,29.49,West,276,16.0,16.0,65,0.00,CLR,,0.06,WeatherDisplay:10.37,2013-04-01 17:24:00,
2013-04-01 19:29:00,60.4,49.0,29.50,WNW,287,16.1,16.1,66,0.00,CLR,,0.06,WeatherDisplay:10.37,2013-04-01 17:29:00,
2013-04-01 19:34:00,60.1,49.1,29.50,West,278,21.9,21.9,67,0.00,CLR,,0.06,WeatherDisplay:10.37,2013-04-01 17:34:00,
2013-04-01 19:39:00,60.3,49.3,29.50,South,181,19.6,19.6,67,0.00,CLR,,0.06,WeatherDisplay:10.37,2013-04-01 17:39:00,
2013-04-01 19:44:00,60.2,49.2,29.50,West,280,16.1,16.1,67,0.00,CLR,,0.06,WeatherDisplay:10.37,2013-04-01 17:44:00,
2013-04-01 19:50:00,60.0,49.4,29.50,WNW,293,17.3,17.3,68,0.00,CLR,,0.06,WeatherDisplay:10.37,2013-04-01 17:50:00,
2013-04-01 19:55:00,59.7,49.1,29.50,WNW,295,13.8,13.8,68,0.00,CLR,,0.06,WeatherDisplay:10.37,2013-04-01 17:55:00,
2013-04-01 20:00:00,59.5,49.3,29.50,WNW,287,17.3,17.3,69,0.00,CLR,,0.06,WeatherDisplay:10.37,2013-04-01 18:00:00,
2013-04-01 20:05:00,59.2,49.0,29.51,West,260,13.0,13.0,69,0.00,CLR,,0.06,WeatherDisplay:10.37,2013-04-01 18:05:00,
2013-04-01 20:10:00,58.9,49.1,29.51,West,266,17.3,17.3,70,0.00,CLR,,0.06,WeatherDisplay:10.37,2013-04-01 18:10:00,
2013-04-01 20:15:00,58.5,48.7,29.52,SSW,210,11.5,11.5,70,0.00,CLR,,0.06,WeatherDisplay:10.37,2013-04-01 18:15:00,
2013-04-01 20:20:00,58.2,48.8,29.52,West,269,16.1,16.1,71,0.00,CLR,,0.06,WeatherDisplay:10.37,2013-04-01 18:20:00,
2013-04-01 20:25:00,57.9,48.6,29.52,West,275,17.3,17.3,71,0.00,CLR,,0.06,WeatherDisplay:10.37,2013-04-01 18:25:00,
2013-04-01 20:30:00,57.9,48.6,29.52,West,280,16.1,16.1,71,0.00,CLR,,0.06,WeatherDisplay:10.37,2013-04-01 18:30:00,
2013-04-01 20:35:00,57.7,48.4,29.52,WSW,258,18.0,18.0,71,0.00,CLR,,0.06,WeatherDisplay:10.37,2013-04-01 18:35:00,
2013-04-01 20:40:00,57.6,48.3,29.52,West,265,19.6,19.6,71,0.00,CLR,,0.06,WeatherDisplay:10.37,2013-04-01 18:40:00,
2013-04-01 20:45:00,57.4,48.4,29.53,WNW,299,16.1,16.1,72,0.00,CLR,,0.06,WeatherDisplay:10.37,2013-04-01 18:45:00,
2013-04-01 20:50:00,57.3,48.3,29.53,West,263,17.0,17.0,72,0.00,CLR,,0.06,WeatherDisplay:10.37,2013-04-01 18:50:00,
2013-04-01 20:55:00,57.3,48.7,29.53,WNW,288,19.6,19.6,73,0.00,CLR,,0.06,WeatherDisplay:10.37,2013-04-01 18:55:00,
2013-04-01 21:00:00,57.2,49.0,29.54,West,279,17.3,17.3,74,0.00,CLR,,0.06,WeatherDisplay:10.37,2013-04-01 19:00:00,
2013-04-01 21:05:00,57.0,49.2,29.54,WNW,286,16.1,16.1,75,0.00,CLR,,0.06,WeatherDisplay:10.37,2013-04-01 19:05:00,
2013-04-01 21:10:00,56.9,49.8,29.54,North,359,17.3,17.3,77,0.00,CLR,,0.06,WeatherDisplay:10.37,2013-04-01 19:10:00,
2013-04-01 21:15:00,56.7,49.6,29.55,SW,228,19.6,19.6,77,0.00,CLR,,0.06,WeatherDisplay:10.37,2013-04-01 19:15:00,
2013-04-01 21:20:00,56.6,49.8,29.55,WNW,283,15.0,15.0,78,0.00,CLR,,0.06,WeatherDisplay:10.37,2013-04-01 19:20:00,
2013-04-01 21:25:00,56.5,49.4,29.55,West,270,21.0,21.0,77,0.00,CLR,,0.06,WeatherDisplay:10.37,2013-04-01 19:25:00,
2013-04-01 21:30:00,56.7,49.2,29.55,WNW,288,18.4,18.4,76,0.00,CLR,,0.06,WeatherDisplay:10.37,2013-04-01 19:30:00,
2013-04-01 21:35:00,56.7,49.2,29.56,West,279,16.1,16.1,76,0.00,CLR,,0.06,WeatherDisplay:10.37,2013-04-01 19:35:00,
2013-04-01 21:40:00,56.5,49.4,29.56,WNW,288,16.1,16.1,77,0.00,CLR,,0.06,WeatherDisplay:10.37,2013-04-01 19:40:00,
2013-04-01 21:45:00,56.3,49.2,29.56,WNW,287,15.0,15.0,77,0.00,CLR,,0.06,WeatherDisplay:10.37,2013-04-01 19:45:00,
2013-04-01 21:50:00,56.4,49.3,29.56,NNE,24,15.0,15.0,77,0.00,CLR,,0.06,WeatherDisplay:10.37,2013-04-01 19:50:00,
2013-04-01 21:55:00,56.4,49.3,29.56,WNW,283,12.7,12.7,77,0.00,CLR,,0.06,WeatherDisplay:10.37,2013-04-01 19:55:00,
2013-04-01 22:00:00,56.2,49.1,29.57,WNW,295,12.7,12.7,77,0.00,CLR,,0.06,WeatherDisplay:10.37,2013-04-01 20:00:00,
2013-04-01 22:05:00,56.1,49.0,29.57,West,276,16.1,16.1,77,0.00,CLR,,0.06,WeatherDisplay:10.37,2013-04-01 20:05:00,
2013-04-01 22:10:00,56.3,49.2,29.58,North,359,16.1,16.1,77,0.00,CLR,,0.06,WeatherDisplay:10.37,2013-04-01 20:10:00,
2013-04-01 22:15:00,56.4,48.9,29.58,WNW,291,16.1,16.1,76,0.00,CLR,,0.06,WeatherDisplay:10.37,2013-04-01 20:15:00,
2013-04-01 22:20:00,56.6,48.8,29.58,WNW,286,18.0,18.0,75,0.00,CLR,,0.06,WeatherDisplay:10.37,2013-04-01 20:20:00,
2013-04-01 22:25:00,56.8,47.9,29.58,NNE,16,18.4,18.4,72,0.00,CLR,,0.06,WeatherDisplay:10.37,2013-04-01 20:25:00,
2013-04-01 22:30:00,57.1,47.8,29.59,West,268,18.4,18.4,71,0.00,CLR,,0.06,WeatherDisplay:10.37,2013-04-01 20:30:00,
2013-04-01 22:35:00,57.0,47.3,29.59,West,273,16.1,16.1,70,0.00,CLR,,0.06,WeatherDisplay:10.37,2013-04-01 20:35:00,
2013-04-01 22:40:00,56.6,47.7,29.59,SE,129,16.1,16.1,72,0.00,CLR,,0.06,WeatherDisplay:10.37,2013-04-01 20:40:00,
2013-04-01 22:45:00,56.7,47.0,29.60,NNW,335,15.0,15.0,70,0.00,CLR,,0.06,WeatherDisplay:10.37,2013-04-01 20:45:00,
2013-04-01 22:50:00,55.6,47.1,29.60,NNW,341,17.3,17.3,73,0.00,CLR,,0.06,WeatherDisplay:10.37,2013-04-01 20:50:00,
2013-04-01 22:55:00,54.9,46.4,29.60,North,4,20.7,20.7,73,0.00,CLR,,0.06,WeatherDisplay:10.37,2013-04-01 20:55:00,
2013-04-01 23:00:00,54.4,46.3,29.60,NNE,12,19.6,19.6,74,0.00,CLR,,0.06,WeatherDisplay:10.37,2013-04-01 21:00:00,
2013-04-01 23:05:00,54.0,46.3,29.60,NNW,330,23.0,23.0,75,0.00,CLR,,0.06,WeatherDisplay:10.37,2013-04-01 21:05:00,
2013-04-01 23:10:00,53.7,46.0,29.60,North,359,19.6,19.6,75,0.00,CLR,,0.06,WeatherDisplay:10.37,2013-04-01 21:10:00,
2013-04-01 23:15:00,53.5,46.1,29.60,North,354,20.7,20.7,76,0.00,CLR,,0.06,WeatherDisplay:10.37,2013-04-01 21:15:00,
2013-04-01 23:20:00,53.1,46.1,29.60,North,359,24.2,24.2,77,0.00,CLR,,0.06,WeatherDisplay:10.37,2013-04-01 21:20:00,
2013-04-01 23:25:00,52.9,46.2,29.60,NNW,344,25.3,25.3,78,0.00,CLR,,0.06,WeatherDisplay:10.37,2013-04-01 21:25:00,
2013-04-01 23:30:00,52.6,46.3,29.59,North,10,20.7,20.7,79,0.00,CLR,,0.06,WeatherDisplay:10.37,2013-04-01 21:30:00,
2013-04-01 23:35:00,52.3,46.3,29.60,North,4,24.0,24.0,80,0.00,CLR,,0.06,WeatherDisplay:10.37,2013-04-01 21:35:00,
2013-04-01 23:40:00,52.3,46.3,29.60,North,4,20.7,20.7,80,0.00,CLR,,0.06,WeatherDisplay:10.37,2013-04-01 21:40:00,
2013-04-01 23:45:00,52.3,46.0,29.60,North,354,21.9,21.9,79,0.00,CLR,,0.06,WeatherDisplay:10.37,2013-04-01 21:45:00,
2013-04-01 23:50:00,52.3,46.0,29.60,NNE,19,19.6,19.6,79,0.00,CLR,,0.06,WeatherDisplay:10.37,2013-04-01 21:50:00,
2013-04-01 23:55:00,52.2,45.5,29.60,NNE,18,20.7,20.7,78,0.00,CLR,,0.06,WeatherDisplay:10.37,2013-04-01 21:55:00,